Weather History for KFST - August, 2014

Change the Weather History Date:

Sunday, August 17, 2014

  Actual Average Record
Temperature  
Mean Temperature 79 °F -  
Max Temperature 90 °F 91 °F 102 °F (2010)
Min Temperature 69 °F 69 °F 63 °F (2004)
Cooling Degree Days 14    
Growing Degree Days 29 (Base 50)    
Moisture  
Dew Point 65 °F    
Average Humidity 70    
Maximum Humidity 93    
Minimum Humidity 40    
Precipitation  
Precipitation 0.10 in - - ()
Sea Level Pressure  
Sea Level Pressure 29.94 in    
Wind  
Wind Speed 9 mph (SSE)    
Max Wind Speed 30 mph    
Max Gust Speed 41 mph    
Visibility 10 miles    
Events Rain , Thunderstorm    
Averages and records for this station are not official NWS values.
T = Trace of Precipitation, MM = Missing Value Source: NWS Daily Summary

Daily Weather History Graph

Daily Weather History Graph

Search for Another Location

Airport or City:

Trip Planner

Search our weather history database for the weather conditions in past years. The results will help you decide how hot, cold, wet, or windy it might be!

Date:

Astronomy

Aug. 17, 2014 Rise Set
Actual Time 7:19 AM CDT 8:31 PM CDT
Civil Twilight 6:53 AM CDT 8:57 PM CDT
Nautical Twilight 6:23 AM CDT 9:27 PM CDT
Astronomical Twilight 5:52 AM CDT 9:58 PM CDT
Moon 12:48 AM CDT (8/17) 2:35 PM CDT (8/17)
Length of Visible Light 14h 03m
Length of Day
13h 12m
Waning Gibbous, 48% of the Moon is Illuminated
Aug 17
Waning Gibbous
Aug 25
New
Sep 2
First Quarter
Sep 8
Full
Sep 15
Last Quarter

Hourly Weather History & Observations

Time (CDT) Temp. Heat Index Dew Point Humidity Pressure Visibility Wind Dir Wind Speed Gust Speed Precip Events Conditions
12:00 AM 72.0 °F - 64.9 °F 78% 30.05 in 10.0 mi South 16.1 mph 21.9 mph 0.01 in Rain Light Rain
12:53 AM 72.0 °F - 64.9 °F 78% 29.88 in 10.0 mi South 13.8 mph - 0.03 in Rain Light Rain
2:53 AM 70.0 °F - 66.0 °F 87% 29.86 in 10.0 mi Calm Calm - N/A   Clear
3:53 AM 71.1 °F - 66.9 °F 87% 29.88 in 10.0 mi ENE 4.6 mph - N/A   Clear
4:53 AM 71.1 °F - 66.9 °F 87% 30.04 in 10.0 mi Calm Calm - N/A   Mostly Cloudy
5:31 AM 70.0 °F - 68.0 °F 93% 30.07 in 9.0 mi NE 6.9 mph - 0.05 in Rain , Thunderstorm Light Rain
5:42 AM 70.0 °F - 66.0 °F 87% 30.07 in 10.0 mi ESE 6.9 mph - 0.05 in Rain , Thunderstorm Light Thunderstorms and Rain
5:53 AM 70.0 °F - 66.0 °F 87% 29.94 in 10.0 mi ESE 9.2 mph - 0.07 in Rain Light Rain
6:53 AM 69.1 °F - 64.9 °F 87% 29.93 in 10.0 mi South 5.8 mph - 0.00 in   Clear
7:53 AM 69.1 °F - 66.0 °F 90% 29.93 in 10.0 mi South 5.8 mph - N/A   Clear
8:53 AM 73.0 °F - 66.0 °F 79% 29.94 in 10.0 mi SSW 3.5 mph - N/A   Clear
9:53 AM 75.9 °F - 66.0 °F 71% 29.96 in 10.0 mi South 3.5 mph - N/A   Clear
10:53 AM 79.0 °F - 66.9 °F 66% 29.95 in 10.0 mi Variable 5.8 mph - N/A   Clear
11:53 AM 81.0 °F 83.8 °F 68.0 °F 65% 29.95 in 10.0 mi Variable 4.6 mph - N/A   Partly Cloudy
12:53 PM 82.9 °F 85.4 °F 66.9 °F 58% 29.94 in 10.0 mi Calm Calm - N/A   Clear
1:53 PM 84.9 °F 87.6 °F 66.9 °F 55% 29.91 in 10.0 mi NNW 4.6 mph - N/A   Partly Cloudy
2:53 PM 87.1 °F 88.9 °F 64.9 °F 48% 29.90 in 10.0 mi Calm Calm - N/A   Scattered Clouds
3:53 PM 89.1 °F 91.0 °F 64.9 °F 45% 29.86 in 10.0 mi East 6.9 mph - N/A   Clear
4:53 PM 89.1 °F 89.3 °F 62.1 °F 40% 29.83 in 10.0 mi North - - N/A   Clear
5:53 PM 82.9 °F 84.4 °F 64.0 °F 53% 29.85 in 10.0 mi East 29.9 mph 41.4 mph N/A   Scattered Clouds
6:53 PM 84.0 °F 85.4 °F 64.0 °F 51% 29.84 in 10.0 mi East 19.6 mph - N/A   Clear
7:53 PM 82.0 °F 83.4 °F 64.0 °F 54% 29.88 in 10.0 mi East 9.2 mph - N/A   Scattered Clouds
8:38 PM 80.1 °F 81.7 °F 64.0 °F 58% 30.03 in 10.0 mi Variable 5.8 mph - N/A Thunderstorm Clear
8:53 PM 77.0 °F - 64.0 °F 64% 29.92 in 10.0 mi West 20.7 mph 27.6 mph N/A Thunderstorm Mostly Cloudy
9:02 PM 73.9 °F - 64.0 °F 71% 30.05 in 10.0 mi WSW 12.7 mph 27.6 mph N/A Thunderstorm Scattered Clouds
9:20 PM 75.0 °F - 64.9 °F 71% 30.03 in 10.0 mi WSW 10.4 mph - N/A   Mostly Cloudy
9:53 PM 73.0 °F - 64.9 °F 76% 29.91 in 10.0 mi West 10.4 mph - N/A   Partly Cloudy
10:53 PM 73.0 °F - 64.0 °F 73% 29.92 in 10.0 mi WSW 9.2 mph - N/A   Mostly Cloudy
11:53 PM 71.1 °F - 64.9 °F 81% 29.90 in 10.0 mi South 12.7 mph - 0.00 in   Clear